Regional Weather Roundup
Issued by NWS Little Rock, AR

Home | Current Version | Previous Version | Graphics & Text | Print | Product List | Glossary On
Versions: 1 2 3 4 5 6 7 8 9 10 11 12 13 14 15 16 17 18 19 20 21 22 23 24 25 26 27 28 29 30 31 32 33 34 35 36 37 38 39 40 41 42 43 44 45 46 47 48 49 50
000
ASUS44 KLZK 060505
RWRLZK

WEATHER ROUNDUP FOR ARKANSAS
NATIONAL WEATHER SERVICE LITTLE ROCK AR
1100 PM CST THU MAR 05 2015

NOTE: "FAIR" INDICATES FEW OR NO CLOUDS BELOW 12,000 FEET WITH NO
SIGNIFICANT WEATHER AND/OR OBSTRUCTIONS TO VISIBILITY.

ARZ001-003-010-029-060600-
NORTHWEST ARKANSAS

CITY           SKY/WX    TMP DP  RH WIND       PRES   REMARKS
FAYETTEVILLE   CLEAR     21  17  84 CALM      30.54S
FORT SMITH     CLEAR     28  22  78 NE3       30.58S
HARRISON       CLEAR     19  13  77 S3        30.53F
BENTONVILLE    CLEAR     25  12  58 SE7       30.53S WCI  17
ROGERS         CLEAR     25  15  66 SE8       30.53R WCI  16
SILOAM SPGS    CLEAR     27  12  54 SE3       30.54S
HIGHFILL       CLEAR     25  12  58 S6        30.52S WCI  18
$$

ARZ004-005-016-060600-
NORTH CENTRAL ARKANSAS

CITY           SKY/WX    TMP DP  RH WIND       PRES   REMARKS
BATESVILLE     CLEAR     19  12  73 E3        30.60S
FLIPPIN        CLEAR     19  12  73 CALM      30.55F
MTN HOME       CLEAR     23   6  48 CALM      30.54F
$$

ARZ040-041-060600-
WEST CENTRAL ARKANSAS

CITY           SKY/WX    TMP DP  RH WIND       PRES   REMARKS
MENA           CLEAR     27  23  86 CALM      30.55F
MOUNT IDA      CLEAR     25  20  81 CALM      30.54S
$$

ARZ009-017-025-026-028-060600-
NORTHEAST ARKANSAS

CITY           SKY/WX    TMP DP  RH WIND       PRES   REMARKS
CORNING        FAIR      14  10  85 CALM      30.63S
JONESBORO      PTCLDY    15  11  83 NE3       30.61F
NEWPORT        PTCLDY    17  15  92 NE3       30.63S
WALNUT RIDGE   CLEAR     16  10  79 N3        30.62S
BLYTHEVILLE    MOCLDY     8   6  92 N3        30.62S
$$

ARZ022-023-033-042-044-060600-
CENTRAL ARKANSAS

CITY           SKY/WX    TMP DP  RH WIND       PRES   REMARKS
LITTLE ROCK    CLEAR     25  18  74 CALM      30.60F
N LITTLE ROCK  CLEAR     28  13  54 NE5       30.60F WCI  23
JACKSONVILLE   CLEAR     20  15  82 W3        30.59S
SEARCY         PTCLDY    23  13  65 NE6       30.62S WCI  16
HOT SPRINGS    CLEAR     25  20  81 NW3       30.58F
RUSSELLVILLE   CLEAR     25  20  81 CALM      30.59S
CLINTON        FAIR      19  18  93 CALM      30.61F
$$

ARZ036-060600-
EAST ARKANSAS

CITY           SKY/WX    TMP DP  RH WIND       PRES   REMARKS
WEST MEMPHIS   PTCLDY    15  13  91 CALM      30.60S
$$

ARZ050-053-066-070-073-060600-
SOUTHWEST ARKANSAS

CITY           SKY/WX    TMP DP  RH WIND       PRES   REMARKS
ARKADELPHIA    FAIR      27  27 100 CALM      30.61S
CAMDEN         CLEAR     23  19  86 CALM      30.61S
TEXARKANA      CLEAR     30  22  72 CALM      30.60R
EL DORADO      CLEAR     25  21  85 CALM      30.60R
DE QUEEN       CLEAR     27  24  89 CALM      30.59S
$$

ARZ056-057-069-060600-
SOUTHEAST ARKANSAS

CITY           SKY/WX    TMP DP  RH WIND       PRES   REMARKS
PINE BLUFF     CLEAR     24  19  81 CALM      30.60S
STUTTGART      PTCLDY    25  18  74 NE5       30.61R WCI  19
MONTICELLO     CLEAR     26  19  74 CALM      30.59S

$$





USA.gov is the U.S. government's official web portal to all federal, state and local government web resources and services.